Time,TemperatureF,DewpointF,PressureIn,WindDirection,WindDirectionDegrees,WindSpeedMPH,WindSpeedGustMPH,Humidity,HourlyPrecipIn,Conditions,Clouds,dailyrainin,SoftwareType,DateUTC
2013-04-25 00:02:00,38.3,23.1,29.35,North,0,0.0,0.0,54,0.00,CLR,,0.00,WeatherDisplay:10.37,2013-04-25 06:02:00,
2013-04-25 00:07:00,38.1,22.5,29.35,NE,45,0.0,0.0,53,0.00,CLR,,0.00,WeatherDisplay:10.37,2013-04-25 06:07:00,
2013-04-25 00:12:00,37.9,22.3,29.35,South,180,0.0,0.0,53,0.00,CLR,,0.00,WeatherDisplay:10.37,2013-04-25 06:12:00,
2013-04-25 00:17:00,37.9,22.3,29.36,SE,135,0.0,0.0,53,0.00,CLR,,0.00,WeatherDisplay:10.37,2013-04-25 06:17:00,
2013-04-25 00:22:00,37.8,22.6,29.36,NNE,22,0.0,0.0,54,0.00,CLR,,0.00,WeatherDisplay:10.37,2013-04-25 06:22:00,
2013-04-25 00:27:00,37.8,22.6,29.36,North,0,0.0,0.0,54,0.00,CLR,,0.00,WeatherDisplay:10.37,2013-04-25 06:27:00,
2013-04-25 00:32:00,37.8,22.6,29.36,North,0,0.0,0.0,54,0.00,CLR,,0.00,WeatherDisplay:10.37,2013-04-25 06:32:00,
2013-04-25 00:37:00,37.9,22.8,29.35,SSW,202,0.0,0.0,54,0.00,CLR,,0.00,WeatherDisplay:10.37,2013-04-25 06:37:00,
2013-04-25 00:42:00,37.6,22.4,29.35,NE,45,0.0,0.0,54,0.00,CLR,,0.00,WeatherDisplay:10.37,2013-04-25 06:42:00,
2013-04-25 00:47:00,37.6,22.9,29.35,North,0,0.0,0.0,55,0.00,CLR,,0.00,WeatherDisplay:10.37,2013-04-25 06:47:00,
2013-04-25 00:52:00,37.6,22.9,29.35,North,0,0.0,0.0,55,0.00,CLR,,0.00,WeatherDisplay:10.37,2013-04-25 06:52:00,
2013-04-25 00:57:00,37.6,22.9,29.35,East,90,0.0,0.0,55,0.00,CLR,,0.00,WeatherDisplay:10.37,2013-04-25 06:57:00,
2013-04-25 01:02:00,37.4,22.7,29.35,NE,45,0.0,0.0,55,0.00,CLR,,0.00,WeatherDisplay:10.37,2013-04-25 07:02:00,
2013-04-25 01:07:00,37.2,22.5,29.35,SE,135,0.0,0.0,55,0.00,CLR,,0.00,WeatherDisplay:10.37,2013-04-25 07:07:00,
2013-04-25 01:12:00,37.2,22.5,29.35,North,0,0.0,0.0,55,0.00,CLR,,0.00,WeatherDisplay:10.37,2013-04-25 07:12:00,
2013-04-25 01:17:00,37.2,22.5,29.35,North,0,0.0,0.0,55,0.00,CLR,,0.00,WeatherDisplay:10.37,2013-04-25 07:17:00,
2013-04-25 01:22:00,37.0,22.8,29.35,NW,315,0.0,0.0,56,0.00,CLR,,0.00,WeatherDisplay:10.37,2013-04-25 07:22:00,
2013-04-25 01:27:00,37.0,22.8,29.35,NNE,22,0.0,0.0,56,0.00,CLR,,0.00,WeatherDisplay:10.37,2013-04-25 07:27:00,
2013-04-25 01:32:00,36.9,22.6,29.35,NNE,22,0.0,0.0,56,0.00,CLR,,0.00,WeatherDisplay:10.37,2013-04-25 07:32:00,
2013-04-25 01:37:00,36.9,22.6,29.35,NNE,22,0.0,0.0,56,0.00,CLR,,0.00,WeatherDisplay:10.37,2013-04-25 07:37:00,
2013-04-25 01:42:00,36.7,22.4,29.35,NE,45,0.0,0.0,56,0.00,CLR,,0.00,WeatherDisplay:10.37,2013-04-25 07:42:00,
2013-04-25 01:47:00,36.7,22.4,29.35,North,0,0.0,0.0,56,0.00,CLR,,0.00,WeatherDisplay:10.37,2013-04-25 07:47:00,
2013-04-25 01:52:00,36.9,22.6,29.35,North,0,0.0,0.0,56,0.00,CLR,,0.00,WeatherDisplay:10.37,2013-04-25 07:52:00,
2013-04-25 01:57:00,36.5,22.3,29.34,North,0,0.0,0.0,56,0.00,CLR,,0.00,WeatherDisplay:10.37,2013-04-25 07:57:00,
2013-04-25 02:02:00,36.5,22.3,29.34,NNW,338,0.0,0.0,56,0.00,CLR,,0.00,WeatherDisplay:10.37,2013-04-25 08:02:00,
2013-04-25 02:07:00,36.3,22.1,29.34,NNW,338,0.0,0.0,56,0.00,CLR,,0.00,WeatherDisplay:10.37,2013-04-25 08:07:00,
2013-04-25 02:12:00,36.3,22.5,29.34,North,0,0.0,0.0,57,0.00,CLR,,0.00,WeatherDisplay:10.37,2013-04-25 08:12:00,
2013-04-25 02:17:00,36.3,22.5,29.34,South,180,0.0,0.0,57,0.00,CLR,,0.00,WeatherDisplay:10.37,2013-04-25 08:17:00,
2013-04-25 02:22:00,36.1,22.4,29.34,East,90,0.0,0.0,57,0.00,CLR,,0.00,WeatherDisplay:10.37,2013-04-25 08:22:00,
2013-04-25 02:27:00,36.0,22.2,29.34,North,0,0.0,0.0,57,0.00,CLR,,0.00,WeatherDisplay:10.37,2013-04-25 08:27:00,
2013-04-25 02:32:00,36.1,22.4,29.34,North,0,0.0,0.0,57,0.00,CLR,,0.00,WeatherDisplay:10.37,2013-04-25 08:32:00,
2013-04-25 02:37:00,36.1,22.4,29.33,North,0,0.0,0.0,57,0.00,CLR,,0.00,WeatherDisplay:10.37,2013-04-25 08:37:00,
2013-04-25 02:42:00,35.8,22.0,29.33,North,0,0.0,0.0,57,0.00,CLR,,0.00,WeatherDisplay:10.37,2013-04-25 08:42:00,
2013-04-25 02:47:00,35.8,22.0,29.33,ENE,68,0.0,0.0,57,0.00,CLR,,0.00,WeatherDisplay:10.37,2013-04-25 08:47:00,
2013-04-25 02:52:00,35.8,22.0,29.33,East,90,0.0,0.0,57,0.00,CLR,,0.00,WeatherDisplay:10.37,2013-04-25 08:52:00,
2013-04-25 02:57:00,35.6,21.9,29.33,NW,315,0.0,0.0,57,0.00,CLR,,0.00,WeatherDisplay:10.37,2013-04-25 08:57:00,
2013-04-25 03:02:00,35.6,21.9,29.33,North,0,0.0,0.0,57,0.00,CLR,,0.00,WeatherDisplay:10.37,2013-04-25 09:02:00,
2013-04-25 03:07:00,35.4,21.7,29.33,NNW,338,0.0,0.0,57,0.00,CLR,,0.00,WeatherDisplay:10.37,2013-04-25 09:07:00,
2013-04-25 03:12:00,35.4,21.7,29.33,North,0,0.0,0.0,57,0.00,CLR,,0.00,WeatherDisplay:10.37,2013-04-25 09:12:00,
2013-04-25 03:17:00,35.4,21.7,29.33,SW,225,0.0,0.0,57,0.00,CLR,,0.00,WeatherDisplay:10.37,2013-04-25 09:17:00,
2013-04-25 06:54:00,33.3,21.6,29.34,North,0,0.0,0.0,62,0.00,CLR,,0.00,WeatherDisplay:10.37,2013-04-25 12:54:00,
2013-04-25 06:59:00,33.4,21.8,29.34,North,0,0.0,0.0,62,0.00,CLR,,0.00,WeatherDisplay:10.37,2013-04-25 12:59:00,
2013-04-25 07:04:00,33.8,22.1,29.34,North,0,0.0,0.0,62,0.00,CLR,,0.00,WeatherDisplay:10.37,2013-04-25 13:04:00,
2013-04-25 07:09:00,34.0,22.3,29.34,NW,315,0.0,0.0,62,0.00,CLR,,0.00,WeatherDisplay:10.37,2013-04-25 13:09:00,
2013-04-25 07:14:00,34.7,23.0,29.34,NNW,338,0.0,0.0,62,0.00,CLR,,0.00,WeatherDisplay:10.37,2013-04-25 13:14:00,
2013-04-25 07:19:00,34.9,23.2,29.35,NW,315,0.0,0.0,62,0.00,CLR,,0.00,WeatherDisplay:10.37,2013-04-25 13:19:00,
2013-04-25 07:24:00,35.4,23.7,29.35,NE,45,0.0,0.0,62,0.00,CLR,,0.00,WeatherDisplay:10.37,2013-04-25 13:24:00,
2013-04-25 07:29:00,35.6,23.9,29.35,ENE,68,0.0,0.0,62,0.00,CLR,,0.00,WeatherDisplay:10.37,2013-04-25 13:29:00,
2013-04-25 07:34:00,36.1,24.4,29.35,ESE,112,0.0,0.0,62,0.00,CLR,,0.00,WeatherDisplay:10.37,2013-04-25 13:34:00,
2013-04-25 07:39:00,36.3,24.5,29.35,NW,315,0.0,0.0,62,0.00,CLR,,0.00,WeatherDisplay:10.37,2013-04-25 13:39:00,
2013-04-25 07:44:00,37.0,25.2,29.35,East,90,0.0,0.0,62,0.00,CLR,,0.00,WeatherDisplay:10.37,2013-04-25 13:44:00,
2013-04-25 07:49:00,37.2,25.4,29.35,NW,315,0.0,0.0,62,0.00,CLR,,0.00,WeatherDisplay:10.37,2013-04-25 13:49:00,
2013-04-25 07:54:00,37.9,26.1,29.35,NNW,338,0.0,0.0,62,0.00,CLR,,0.00,WeatherDisplay:10.37,2013-04-25 13:54:00,
2013-04-25 07:59:00,38.5,26.2,29.35,NE,45,0.0,0.0,61,0.00,CLR,,0.00,WeatherDisplay:10.37,2013-04-25 13:59:00,
2013-04-25 08:04:00,39.4,26.6,29.35,NNW,338,0.0,0.0,60,0.00,CLR,,0.00,WeatherDisplay:10.37,2013-04-25 14:04:00,
2013-04-25 08:09:00,40.1,27.3,29.35,WNW,292,0.0,0.0,60,0.00,CLR,,0.00,WeatherDisplay:10.37,2013-04-25 14:09:00,
2013-04-25 08:14:00,40.8,27.2,29.35,NW,315,0.0,0.0,58,0.00,CLR,,0.00,WeatherDisplay:10.37,2013-04-25 14:14:00,
2013-04-25 08:19:00,41.2,27.5,29.38,NNE,22,0.0,0.0,58,0.00,CLR,,0.00,WeatherDisplay:10.37,2013-04-25 14:19:00,
2013-04-25 08:24:00,42.1,27.9,29.38,WSW,248,0.0,0.0,57,0.00,CLR,,0.00,WeatherDisplay:10.37,2013-04-25 14:24:00,
2013-04-25 08:29:00,42.8,28.2,29.38,ENE,68,2.3,2.3,56,0.00,CLR,,0.00,WeatherDisplay:10.37,2013-04-25 14:29:00,
2013-04-25 08:34:00,43.2,28.1,29.38,North,0,2.8,2.8,55,0.00,CLR,,0.00,WeatherDisplay:10.37,2013-04-25 14:34:00,
2013-04-25 08:39:00,43.7,28.6,29.36,WSW,248,0.0,1.0,55,0.00,CLR,,0.00,WeatherDisplay:10.37,2013-04-25 14:39:00,
2013-04-25 08:44:00,44.2,28.6,29.36,NNW,338,0.0,0.5,54,0.00,CLR,,0.00,WeatherDisplay:10.37,2013-04-25 14:44:00,
2013-04-25 08:49:00,45.0,29.8,29.36,NNW,338,1.1,1.1,55,0.00,CLR,,0.00,WeatherDisplay:10.37,2013-04-25 14:49:00,
2013-04-25 08:54:00,45.7,30.0,29.36,NW,315,0.0,0.2,54,0.00,CLR,,0.00,WeatherDisplay:10.37,2013-04-25 14:54:00,
2013-04-25 08:59:00,46.2,30.0,29.36,WSW,248,0.0,0.1,53,0.00,CLR,,0.00,WeatherDisplay:10.37,2013-04-25 14:59:00,
2013-04-25 09:04:00,46.6,30.3,29.36,WSW,248,0.0,0.1,53,0.00,CLR,,0.00,WeatherDisplay:10.37,2013-04-25 15:04:00,
2013-04-25 09:09:00,47.3,30.5,29.36,NW,315,0.0,0.1,52,0.00,CLR,,0.00,WeatherDisplay:10.37,2013-04-25 15:09:00,
2013-04-25 09:14:00,47.7,30.9,29.36,ENE,68,2.1,2.1,52,0.00,CLR,,0.00,WeatherDisplay:10.37,2013-04-25 15:14:00,
2013-04-25 09:19:00,48.0,30.7,29.41,West,270,1.1,1.1,51,0.00,CLR,,0.00,WeatherDisplay:10.37,2013-04-25 15:19:00,
2013-04-25 09:24:00,48.6,31.2,29.41,North,0,0.0,0.7,51,0.00,CLR,,0.00,WeatherDisplay:10.37,2013-04-25 15:24:00,
2013-04-25 09:29:00,49.1,31.2,29.41,SW,225,0.0,0.3,50,0.00,CLR,,0.00,WeatherDisplay:10.37,2013-04-25 15:29:00,
2013-04-25 09:34:00,49.1,31.2,29.41,NE,45,2.8,2.8,50,0.00,CLR,,0.00,WeatherDisplay:10.37,2013-04-25 15:34:00,
2013-04-25 09:39:00,48.7,30.4,29.38,ESE,112,0.0,1.0,49,0.00,CLR,,0.00,WeatherDisplay:10.37,2013-04-25 15:39:00,
2013-04-25 09:44:00,47.8,29.1,29.38,SSW,202,0.0,0.6,48,0.00,CLR,,0.00,WeatherDisplay:10.37,2013-04-25 15:44:00,
2013-04-25 09:49:00,47.8,29.1,29.38,SSW,202,0.0,0.3,48,0.00,CLR,,0.00,WeatherDisplay:10.37,2013-04-25 15:49:00,
2013-04-25 09:54:00,47.3,29.1,29.38,East,90,2.3,2.3,49,0.00,CLR,,0.00,WeatherDisplay:10.37,2013-04-25 15:54:00,
2013-04-25 09:59:00,46.9,28.3,29.34,East,90,0.0,0.9,48,0.00,CLR,,0.00,WeatherDisplay:10.37,2013-04-25 15:59:00,
2013-04-25 10:04:00,47.3,29.1,29.34,NE,45,0.0,0.6,49,0.00,CLR,,0.00,WeatherDisplay:10.37,2013-04-25 16:04:00,
2013-04-25 10:09:00,47.5,29.3,29.34,SE,135,0.0,0.3,49,0.00,CLR,,0.00,WeatherDisplay:10.37,2013-04-25 16:09:00,
2013-04-25 10:14:00,47.8,28.6,29.34,ENE,68,5.8,5.8,47,0.00,CLR,,0.00,WeatherDisplay:10.37,2013-04-25 16:14:00,
2013-04-25 10:19:00,48.0,28.7,29.37,WSW,248,0.0,1.3,47,0.00,CLR,,0.00,WeatherDisplay:10.37,2013-04-25 16:19:00,
2013-04-25 10:24:00,48.4,29.1,29.37,SE,135,2.6,2.6,47,0.00,CLR,,0.00,WeatherDisplay:10.37,2013-04-25 16:24:00,
2013-04-25 10:29:00,48.6,29.2,29.37,SSE,158,0.0,0.8,47,0.00,CLR,,0.00,WeatherDisplay:10.37,2013-04-25 16:29:00,
2013-04-25 10:34:00,48.7,28.9,29.37,ESE,112,2.3,2.3,46,0.00,CLR,,0.00,WeatherDisplay:10.37,2013-04-25 16:34:00,
2013-04-25 10:39:00,48.9,28.5,29.37,East,90,5.8,5.8,45,0.00,CLR,,0.00,WeatherDisplay:10.37,2013-04-25 16:39:00,
2013-04-25 10:44:00,50.0,28.9,29.37,NNW,338,2.3,2.3,44,0.00,CLR,,0.00,WeatherDisplay:10.37,2013-04-25 16:44:00,
2013-04-25 10:49:00,50.0,28.9,29.37,WSW,248,2.6,2.6,44,0.00,CLR,,0.00,WeatherDisplay:10.37,2013-04-25 16:49:00,
2013-04-25 10:54:00,50.5,28.3,29.37,East,90,5.8,5.8,42,0.00,CLR,,0.00,WeatherDisplay:10.37,2013-04-25 16:54:00,
2013-04-25 10:59:00,50.7,28.4,29.38,NW,315,4.6,4.6,42,0.00,CLR,,0.00,WeatherDisplay:10.37,2013-04-25 16:59:00,
2013-04-25 11:04:00,50.9,28.6,29.38,East,90,4.6,4.6,42,0.00,CLR,,0.00,WeatherDisplay:10.37,2013-04-25 17:04:00,
2013-04-25 11:09:00,50.7,29.0,29.38,East,90,6.9,6.9,43,0.00,CLR,,0.00,WeatherDisplay:10.37,2013-04-25 17:09:00,
2013-04-25 11:14:00,51.4,29.1,29.38,East,90,5.8,5.8,42,0.00,CLR,,0.00,WeatherDisplay:10.37,2013-04-25 17:14:00,
2013-04-25 11:19:00,51.6,29.3,29.37,ESE,112,5.8,5.8,42,0.00,CLR,,0.00,WeatherDisplay:10.37,2013-04-25 17:19:00,
2013-04-25 11:24:00,51.6,28.7,29.37,West,270,0.0,2.5,41,0.00,CLR,,0.00,WeatherDisplay:10.37,2013-04-25 17:24:00,
2013-04-25 11:29:00,51.4,27.9,29.37,SSW,202,3.6,3.6,40,0.00,CLR,,0.00,WeatherDisplay:10.37,2013-04-25 17:29:00,
2013-04-25 11:34:00,51.6,28.1,29.37,SSW,202,3.5,3.5,40,0.00,CLR,,0.00,WeatherDisplay:10.37,2013-04-25 17:34:00,
2013-04-25 11:39:00,52.0,29.0,29.36,ESE,112,3.5,3.5,41,0.00,CLR,,0.00,WeatherDisplay:10.37,2013-04-25 17:39:00,
2013-04-25 11:44:00,52.5,29.5,29.36,SSW,202,0.0,1.5,41,0.00,CLR,,0.00,WeatherDisplay:10.37,2013-04-25 17:44:00,
2013-04-25 11:49:00,52.9,29.2,29.36,SSE,158,3.6,3.6,40,0.00,CLR,,0.00,WeatherDisplay:10.37,2013-04-25 17:49:00,
2013-04-25 11:54:00,53.1,28.7,29.36,SSW,202,5.8,5.8,39,0.00,CLR,,0.00,WeatherDisplay:10.37,2013-04-25 17:54:00,
2013-04-25 11:59:00,53.2,28.3,29.36,SW,225,5.8,5.8,38,0.00,CLR,,0.00,WeatherDisplay:10.37,2013-04-25 17:59:00,
2013-04-25 12:04:00,53.4,27.8,29.36,SW,225,0.0,2.8,37,0.00,CLR,,0.00,WeatherDisplay:10.37,2013-04-25 18:04:00,
2013-04-25 12:09:00,53.4,27.8,29.36,SW,225,0.0,2.8,37,0.00,CLR,,0.00,WeatherDisplay:10.37,2013-04-25 18:09:00,
2013-04-25 12:14:00,53.6,27.9,29.36,SE,135,3.6,3.6,37,0.00,CLR,,0.00,WeatherDisplay:10.37,2013-04-25 18:14:00,
2013-04-25 12:19:00,53.4,27.8,29.35,SSW,202,5.1,5.1,37,0.00,CLR,,0.00,WeatherDisplay:10.37,2013-04-25 18:19:00,
2013-04-25 12:24:00,54.1,28.4,29.35,SW,225,3.8,3.8,37,0.00,CLR,,0.00,WeatherDisplay:10.37,2013-04-25 18:24:00,
2013-04-25 12:29:00,54.5,28.1,29.35,East,90,2.3,3.3,36,0.00,CLR,,0.00,WeatherDisplay:10.37,2013-04-25 18:29:00,
2013-04-25 12:34:00,55.2,28.7,29.35,WSW,248,8.1,8.1,36,0.00,CLR,,0.00,WeatherDisplay:10.37,2013-04-25 18:34:00,
2013-04-25 12:39:00,55.6,28.3,29.37,SSW,202,10.4,10.4,35,0.00,CLR,,0.00,WeatherDisplay:10.37,2013-04-25 18:39:00,
2013-04-25 12:44:00,55.8,29.2,29.37,SE,135,6.9,6.9,36,0.00,CLR,,0.00,WeatherDisplay:10.37,2013-04-25 18:44:00,
2013-04-25 12:49:00,55.9,29.3,29.37,East,90,9.2,9.2,36,0.00,CLR,,0.00,WeatherDisplay:10.37,2013-04-25 18:49:00,
2013-04-25 12:54:00,55.9,28.7,29.37,WSW,248,5.8,5.8,35,0.00,CLR,,0.00,WeatherDisplay:10.37,2013-04-25 18:54:00,
2013-04-25 12:59:00,56.3,29.7,29.35,SW,225,1.5,2.0,36,0.00,CLR,,0.00,WeatherDisplay:10.37,2013-04-25 18:59:00,
2013-04-25 13:04:00,56.5,29.1,29.35,SSW,202,11.5,11.5,35,0.00,CLR,,0.00,WeatherDisplay:10.37,2013-04-25 19:04:00,
2013-04-25 13:09:00,56.7,30.0,29.35,SE,135,10.4,10.4,36,0.00,CLR,,0.00,WeatherDisplay:10.37,2013-04-25 19:09:00,
2013-04-25 13:14:00,57.0,29.6,29.35,SE,135,6.9,6.9,35,0.00,CLR,,0.00,WeatherDisplay:10.37,2013-04-25 19:14:00,
2013-04-25 13:19:00,57.4,29.9,29.36,WSW,248,3.5,5.4,35,0.00,CLR,,0.00,WeatherDisplay:10.37,2013-04-25 19:19:00,
2013-04-25 13:24:00,57.6,30.1,29.36,West,270,4.6,4.6,35,0.00,CLR,,0.00,WeatherDisplay:10.37,2013-04-25 19:24:00,
2013-04-25 13:29:00,58.1,30.6,29.36,East,90,3.5,3.7,35,0.00,CLR,,0.00,WeatherDisplay:10.37,2013-04-25 19:29:00,
2013-04-25 13:34:00,58.6,28.1,29.36,SSW,202,0.0,2.2,31,0.00,CLR,,0.00,WeatherDisplay:10.37,2013-04-25 19:34:00,
2013-04-25 13:39:00,58.5,29.4,29.36,WSW,248,0.0,1.3,33,0.00,CLR,,0.00,WeatherDisplay:10.37,2013-04-25 19:39:00,
2013-04-25 13:44:00,58.5,27.9,29.36,SW,225,8.1,8.1,31,0.00,CLR,,0.00,WeatherDisplay:10.37,2013-04-25 19:44:00,
2013-04-25 13:49:00,58.1,28.4,29.36,SSE,158,9.5,9.5,32,0.00,CLR,,0.00,WeatherDisplay:10.37,2013-04-25 19:49:00,
2013-04-25 13:54:00,58.1,29.1,29.36,SW,225,5.8,5.8,33,0.00,CLR,,0.00,WeatherDisplay:10.37,2013-04-25 19:54:00,
2013-04-25 13:59:00,58.5,30.2,29.35,North,0,4.6,4.6,34,0.00,CLR,,0.00,WeatherDisplay:10.37,2013-04-25 19:59:00,
2013-04-25 14:04:00,58.6,31.7,29.35,East,90,4.6,4.6,36,0.00,CLR,,0.00,WeatherDisplay:10.37,2013-04-25 20:04:00,
2013-04-25 14:09:00,58.6,31.0,29.35,SW,225,0.0,0.8,35,0.00,CLR,,0.00,WeatherDisplay:10.37,2013-04-25 20:09:00,
2013-04-25 14:14:00,59.0,32.1,29.35,ENE,68,5.8,5.8,36,0.00,CLR,,0.00,WeatherDisplay:10.37,2013-04-25 20:14:00,
2013-04-25 14:19:00,58.8,31.9,29.33,NE,45,0.0,1.7,36,0.00,CLR,,0.00,WeatherDisplay:10.37,2013-04-25 20:19:00,
2013-04-25 14:24:00,58.6,31.7,29.33,SSW,202,4.6,4.6,36,0.00,CLR,,0.00,WeatherDisplay:10.37,2013-04-25 20:24:00,
2013-04-25 14:29:00,59.2,31.5,29.33,SW,225,0.0,1.3,35,0.00,CLR,,0.00,WeatherDisplay:10.37,2013-04-25 20:29:00,
2013-04-25 14:34:00,59.2,30.8,29.33,South,180,10.4,10.4,34,0.00,CLR,,0.00,WeatherDisplay:10.37,2013-04-25 20:34:00,
2013-04-25 14:39:00,59.2,30.8,29.34,NW,315,3.5,3.5,34,0.00,CLR,,0.00,WeatherDisplay:10.37,2013-04-25 20:39:00,
2013-04-25 14:44:00,59.2,28.5,29.34,SSW,202,10.4,10.4,31,0.00,CLR,,0.00,WeatherDisplay:10.37,2013-04-25 20:44:00,
2013-04-25 14:49:00,59.5,30.4,29.34,SE,135,4.6,4.6,33,0.00,CLR,,0.00,WeatherDisplay:10.37,2013-04-25 20:49:00,
2013-04-25 14:54:00,59.4,27.9,29.34,SSW,202,8.2,8.2,30,0.00,CLR,,0.00,WeatherDisplay:10.37,2013-04-25 20:54:00,
2013-04-25 14:59:00,59.4,27.9,29.35,SW,225,3.5,4.9,30,0.00,CLR,,0.00,WeatherDisplay:10.37,2013-04-25 20:59:00,
2013-04-25 15:04:00,59.4,27.9,29.35,ENE,68,2.3,4.7,30,0.00,CLR,,0.00,WeatherDisplay:10.37,2013-04-25 21:04:00,
2013-04-25 15:09:00,59.7,29.8,29.35,SE,135,2.3,3.1,32,0.00,CLR,,0.00,WeatherDisplay:10.37,2013-04-25 21:09:00,
2013-04-25 15:14:00,59.7,29.0,29.35,WSW,248,6.9,6.9,31,0.00,CLR,,0.00,WeatherDisplay:10.37,2013-04-25 21:14:00,
2013-04-25 15:19:00,59.9,28.4,29.35,SSW,202,4.6,4.6,30,0.00,CLR,,0.00,WeatherDisplay:10.37,2013-04-25 21:19:00,
2013-04-25 15:24:00,60.1,27.7,29.35,SSW,202,6.9,6.9,29,0.00,CLR,,0.00,WeatherDisplay:10.37,2013-04-25 21:24:00,
2013-04-25 15:29:00,60.1,27.7,29.35,SW,225,4.6,4.6,29,0.00,CLR,,0.00,WeatherDisplay:10.37,2013-04-25 21:29:00,
2013-04-25 15:34:00,60.3,28.7,29.35,WSW,248,3.5,3.9,30,0.00,CLR,,0.00,WeatherDisplay:10.37,2013-04-25 21:34:00,
2013-04-25 15:39:00,60.1,28.5,29.35,SW,225,6.9,6.9,30,0.00,CLR,,0.00,WeatherDisplay:10.37,2013-04-25 21:39:00,
2013-04-25 15:44:00,59.9,27.5,29.35,SSW,202,6.9,6.9,29,0.00,CLR,,0.00,WeatherDisplay:10.37,2013-04-25 21:44:00,
2013-04-25 15:49:00,60.1,29.3,29.35,WSW,248,2.3,2.6,31,0.00,CLR,,0.00,WeatherDisplay:10.37,2013-04-25 21:49:00,
2013-04-25 15:54:00,59.9,28.4,29.35,SE,135,6.9,6.9,30,0.00,CLR,,0.00,WeatherDisplay:10.37,2013-04-25 21:54:00,
2013-04-25 15:59:00,59.7,28.2,29.34,SSW,202,4.6,4.6,30,0.00,CLR,,0.00,WeatherDisplay:10.37,2013-04-25 21:59:00,
2013-04-25 16:04:00,59.9,28.4,29.34,SSW,202,5.8,5.8,30,0.00,CLR,,0.00,WeatherDisplay:10.37,2013-04-25 22:04:00,
2013-04-25 16:09:00,59.9,29.2,29.34,SE,135,5.8,5.8,31,0.00,CLR,,0.00,WeatherDisplay:10.37,2013-04-25 22:09:00,
2013-04-25 16:14:00,59.9,28.4,29.34,SSE,158,10.4,10.4,30,0.00,CLR,,0.00,WeatherDisplay:10.37,2013-04-25 22:14:00,
2013-04-25 16:19:00,59.9,29.2,29.34,SW,225,0.0,3.7,31,0.00,CLR,,0.00,WeatherDisplay:10.37,2013-04-25 22:19:00,
2013-04-25 16:24:00,59.9,29.2,29.34,WSW,248,9.2,9.2,31,0.00,CLR,,0.00,WeatherDisplay:10.37,2013-04-25 22:24:00,
2013-04-25 16:29:00,59.9,28.4,29.34,SSW,202,6.9,6.9,30,0.00,CLR,,0.00,WeatherDisplay:10.37,2013-04-25 22:29:00,
2013-04-25 16:34:00,59.9,29.2,29.34,SSW,202,3.5,3.5,31,0.00,CLR,,0.00,WeatherDisplay:10.37,2013-04-25 22:34:00,
2013-04-25 16:39:00,59.9,29.2,29.33,SSE,158,2.3,2.4,31,0.00,CLR,,0.00,WeatherDisplay:10.37,2013-04-25 22:39:00,
2013-04-25 16:44:00,59.9,28.4,29.33,SE,135,12.7,12.7,30,0.00,CLR,,0.00,WeatherDisplay:10.37,2013-04-25 22:44:00,
2013-04-25 16:49:00,59.9,28.4,29.33,South,180,3.5,3.6,30,0.00,CLR,,0.00,WeatherDisplay:10.37,2013-04-25 22:49:00,
2013-04-25 16:54:00,59.9,29.2,29.33,East,90,9.2,9.2,31,0.00,CLR,,0.00,WeatherDisplay:10.37,2013-04-25 22:54:00,
2013-04-25 16:59:00,59.9,27.5,29.35,SW,225,9.2,9.2,29,0.00,CLR,,0.00,WeatherDisplay:10.37,2013-04-25 22:59:00,
2013-04-25 17:04:00,59.9,28.4,29.35,SE,135,8.1,8.1,30,0.00,CLR,,0.00,WeatherDisplay:10.37,2013-04-25 23:04:00,
2013-04-25 17:09:00,59.9,28.4,29.35,SW,225,2.3,4.3,30,0.00,CLR,,0.00,WeatherDisplay:10.37,2013-04-25 23:09:00,
2013-04-25 17:14:00,59.9,29.2,29.35,SSW,202,3.5,3.5,31,0.00,CLR,,0.00,WeatherDisplay:10.37,2013-04-25 23:14:00,
2013-04-25 17:19:00,59.7,28.2,29.35,SE,135,9.2,9.2,30,0.00,CLR,,0.00,WeatherDisplay:10.37,2013-04-25 23:19:00,
2013-04-25 17:24:00,59.7,29.0,29.35,WSW,248,4.6,4.6,31,0.00,CLR,,0.00,WeatherDisplay:10.37,2013-04-25 23:24:00,
2013-04-25 17:29:00,59.9,28.4,29.35,SSW,202,5.8,5.8,30,0.00,CLR,,0.00,WeatherDisplay:10.37,2013-04-25 23:29:00,
2013-04-25 17:34:00,59.7,29.0,29.35,North,0,3.5,3.5,31,0.00,CLR,,0.00,WeatherDisplay:10.37,2013-04-25 23:34:00,
2013-04-25 17:39:00,59.9,29.2,29.35,SSW,202,0.0,2.6,31,0.00,CLR,,0.00,WeatherDisplay:10.37,2013-04-25 23:39:00,
2013-04-25 17:44:00,59.9,28.4,29.35,SE,135,8.1,8.1,30,0.00,CLR,,0.00,WeatherDisplay:10.37,2013-04-25 23:44:00,
2013-04-25 17:49:00,59.9,28.4,29.35,SSW,202,8.1,8.1,30,0.00,CLR,,0.00,WeatherDisplay:10.37,2013-04-25 23:49:00,
2013-04-25 17:54:00,59.5,28.0,29.35,SSE,158,4.6,4.6,30,0.00,CLR,,0.00,WeatherDisplay:10.37,2013-04-25 23:54:00,
2013-04-25 17:59:00,59.5,27.2,29.37,SW,225,4.6,4.6,29,0.00,CLR,,0.00,WeatherDisplay:10.37,2013-04-25 23:59:00,
2013-04-25 18:04:00,59.4,27.9,29.37,South,180,4.6,4.6,30,0.00,CLR,,0.00,WeatherDisplay:10.37,2013-04-26 00:04:00,
2013-04-25 18:09:00,59.4,27.9,29.37,SW,225,0.0,3.0,30,0.00,CLR,,0.00,WeatherDisplay:10.37,2013-04-26 00:09:00,
2013-04-25 18:14:00,59.2,27.7,29.37,SW,225,4.6,4.6,30,0.00,CLR,,0.00,WeatherDisplay:10.37,2013-04-26 00:14:00,
2013-04-25 18:19:00,59.2,27.7,29.38,ENE,68,2.3,2.4,30,0.00,CLR,,0.00,WeatherDisplay:10.37,2013-04-26 00:19:00,
2013-04-25 18:24:00,58.6,28.1,29.38,SSW,202,2.3,2.3,31,0.00,CLR,,0.00,WeatherDisplay:10.37,2013-04-26 00:24:00,
2013-04-25 18:29:00,58.6,28.8,29.38,SSW,202,3.5,3.5,32,0.00,CLR,,0.00,WeatherDisplay:10.37,2013-04-26 00:29:00,
2013-04-25 18:34:00,58.5,27.9,29.38,SE,135,4.6,4.6,31,0.00,CLR,,0.00,WeatherDisplay:10.37,2013-04-26 00:34:00,
2013-04-25 18:39:00,58.5,27.9,29.34,WSW,248,0.0,1.4,31,0.00,CLR,,0.00,WeatherDisplay:10.37,2013-04-26 00:39:00,
2013-04-25 18:44:00,58.5,27.9,29.34,ESE,112,5.8,5.8,31,0.00,CLR,,0.00,WeatherDisplay:10.37,2013-04-26 00:44:00,
2013-04-25 18:49:00,58.1,26.8,29.34,East,90,2.3,2.3,30,0.00,CLR,,0.00,WeatherDisplay:10.37,2013-04-26 00:49:00,
2013-04-25 18:54:00,58.1,27.6,29.34,SSW,202,0.0,1.1,31,0.00,CLR,,0.00,WeatherDisplay:10.37,2013-04-26 00:54:00,
2013-04-25 18:59:00,57.9,27.4,29.32,South,180,0.0,1.1,31,0.00,CLR,,0.00,WeatherDisplay:10.37,2013-04-26 00:59:00,
2013-04-25 19:04:00,57.9,27.4,29.32,SSW,202,4.6,4.6,31,0.00,CLR,,0.00,WeatherDisplay:10.37,2013-04-26 01:04:00,
2013-04-25 19:09:00,57.7,27.3,29.32,SSE,158,5.8,5.8,31,0.00,CLR,,0.00,WeatherDisplay:10.37,2013-04-26 01:09:00,
2013-04-25 19:14:00,57.6,27.1,29.32,SSW,202,6.9,6.9,31,0.00,CLR,,0.00,WeatherDisplay:10.37,2013-04-26 01:14:00,
2013-04-25 19:19:00,57.2,27.6,29.32,SW,225,4.6,4.6,32,0.00,CLR,,0.00,WeatherDisplay:10.37,2013-04-26 01:19:00,
2013-04-25 19:24:00,57.0,27.4,29.32,SSE,158,3.5,3.5,32,0.00,CLR,,0.00,WeatherDisplay:10.37,2013-04-26 01:24:00,
2013-04-25 19:29:00,56.5,27.7,29.32,NNW,338,0.0,1.6,33,0.00,CLR,,0.00,WeatherDisplay:10.37,2013-04-26 01:29:00,
2013-04-25 19:34:00,56.5,26.9,29.32,SE,135,4.6,4.6,32,0.00,CLR,,0.00,WeatherDisplay:10.37,2013-04-26 01:34:00,
2013-04-25 19:39:00,56.3,27.5,29.33,ENE,68,0.0,1.4,33,0.00,CLR,,0.00,WeatherDisplay:10.37,2013-04-26 01:39:00,
2013-04-25 19:44:00,55.9,27.2,29.33,WSW,248,1.1,1.3,33,0.00,CLR,,0.00,WeatherDisplay:10.37,2013-04-26 01:44:00,
2013-04-25 19:49:00,55.8,27.1,29.33,SW,225,1.1,1.1,33,0.00,CLR,,0.00,WeatherDisplay:10.37,2013-04-26 01:49:00,
2013-04-25 19:54:00,55.4,26.7,29.33,WSW,248,2.3,2.3,33,0.00,CLR,,0.00,WeatherDisplay:10.37,2013-04-26 01:54:00,
2013-04-25 19:59:00,55.0,27.1,29.33,ENE,68,0.0,2.1,34,0.00,CLR,,0.00,WeatherDisplay:10.37,2013-04-26 01:59:00,
2013-04-25 20:04:00,54.5,26.7,29.33,East,90,0.0,0.5,34,0.00,CLR,,0.00,WeatherDisplay:10.37,2013-04-26 02:04:00,
2013-04-25 20:09:00,54.1,26.4,29.33,NE,45,0.0,0.3,34,0.00,CLR,,0.00,WeatherDisplay:10.37,2013-04-26 02:09:00,
2013-04-25 20:14:00,53.6,25.9,29.33,ESE,112,0.0,0.2,34,0.00,CLR,,0.00,WeatherDisplay:10.37,2013-04-26 02:14:00,
2013-04-25 20:19:00,53.1,26.1,29.34,SE,135,4.6,4.6,35,0.00,CLR,,0.00,WeatherDisplay:10.37,2013-04-26 02:19:00,
2013-04-25 20:24:00,52.7,26.5,29.34,WSW,248,0.0,0.3,36,0.00,CLR,,0.00,WeatherDisplay:10.37,2013-04-26 02:24:00,
2013-04-25 20:30:00,51.8,25.7,29.34,NNE,22,0.0,0.2,36,0.00,CLR,,0.00,WeatherDisplay:10.37,2013-04-26 02:30:00,
2013-04-25 20:35:00,51.3,25.8,29.34,SW,225,0.0,0.0,37,0.00,CLR,,0.00,WeatherDisplay:10.37,2013-04-26 02:35:00,
2013-04-25 20:40:00,50.5,25.2,29.36,ENE,68,2.3,2.3,37,0.00,CLR,,0.00,WeatherDisplay:10.37,2013-04-26 02:40:00,
2013-04-25 20:45:00,50.0,25.4,29.36,NW,315,0.0,0.2,38,0.00,CLR,,0.00,WeatherDisplay:10.37,2013-04-26 02:45:00,
2013-04-25 20:50:00,49.5,24.9,29.36,NNE,22,0.0,0.2,38,0.00,CLR,,0.00,WeatherDisplay:10.37,2013-04-26 02:50:00,
2013-04-25 20:55:00,48.7,24.9,29.36,WNW,292,0.0,0.0,39,0.00,CLR,,0.00,WeatherDisplay:10.37,2013-04-26 02:55:00,
2013-04-25 21:00:00,48.2,24.4,29.37,North,0,0.0,0.0,39,0.00,CLR,,0.00,WeatherDisplay:10.37,2013-04-26 03:00:00,
2013-04-25 21:05:00,47.5,23.7,29.37,NNE,22,0.0,0.0,39,0.00,CLR,,0.00,WeatherDisplay:10.37,2013-04-26 03:05:00,
2013-04-25 21:10:00,46.9,23.8,29.37,West,270,0.0,0.0,40,0.00,CLR,,0.00,WeatherDisplay:10.37,2013-04-26 03:10:00,
2013-04-25 21:15:00,46.4,23.4,29.37,ENE,68,3.5,3.5,40,0.00,CLR,,0.00,WeatherDisplay:10.37,2013-04-26 03:15:00,
2013-04-25 21:20:00,45.9,23.5,29.39,NE,45,0.0,0.3,41,0.00,CLR,,0.00,WeatherDisplay:10.37,2013-04-26 03:20:00,
2013-04-25 21:25:00,45.5,23.7,29.39,NNE,22,0.0,0.3,42,0.00,CLR,,0.00,WeatherDisplay:10.37,2013-04-26 03:25:00,
2013-04-25 21:30:00,45.0,23.2,29.39,NW,315,0.0,0.1,42,0.00,CLR,,0.00,WeatherDisplay:10.37,2013-04-26 03:30:00,
2013-04-25 21:35:00,44.8,23.6,29.39,NNW,338,0.0,0.1,43,0.00,CLR,,0.00,WeatherDisplay:10.37,2013-04-26 03:35:00,
2013-04-25 21:40:00,44.4,23.3,29.41,NE,45,0.0,0.0,43,0.00,CLR,,0.00,WeatherDisplay:10.37,2013-04-26 03:40:00,
2013-04-25 21:45:00,44.1,23.0,29.41,North,0,0.0,0.0,43,0.00,CLR,,0.00,WeatherDisplay:10.37,2013-04-26 03:45:00,
2013-04-25 21:50:00,43.7,23.2,29.41,NE,45,0.0,0.0,44,0.00,CLR,,0.00,WeatherDisplay:10.37,2013-04-26 03:50:00,
2013-04-25 21:55:00,43.3,22.9,29.41,NE,45,0.0,0.0,44,0.00,CLR,,0.00,WeatherDisplay:10.37,2013-04-26 03:55:00,
2013-04-25 22:00:00,43.0,23.1,29.43,NNE,22,0.0,0.0,45,0.00,CLR,,0.00,WeatherDisplay:10.37,2013-04-26 04:00:00,
2013-04-25 22:01:00,43.0,23.1,29.43,North,0,0.0,0.0,45,0.00,CLR,,0.00,WeatherDisplay:10.37,2013-04-26 04:01:00,
2013-04-25 22:02:00,43.0,23.1,29.43,North,0,0.0,0.0,45,0.00,CLR,,0.00,WeatherDisplay:10.37,2013-04-26 04:02:00,
2013-04-25 22:04:00,42.8,22.9,29.43,North,0,0.0,0.0,45,0.00,CLR,,0.00,WeatherDisplay:10.37,2013-04-26 04:04:00,
2013-04-25 22:09:00,42.4,22.6,29.43,NNE,22,0.0,0.0,45,0.00,CLR,,0.00,WeatherDisplay:10.37,2013-04-26 04:09:00,
2013-04-25 22:14:00,42.1,22.8,29.43,NNE,22,0.0,0.0,46,0.00,CLR,,0.00,WeatherDisplay:10.37,2013-04-26 04:14:00,
2013-04-25 22:19:00,41.9,22.6,29.42,NNE,22,0.0,0.0,46,0.00,CLR,,0.00,WeatherDisplay:10.37,2013-04-26 04:19:00,
2013-04-25 22:24:00,41.5,22.3,29.42,North,0,0.0,0.0,46,0.00,CLR,,0.00,WeatherDisplay:10.37,2013-04-26 04:24:00,
2013-04-25 22:29:00,41.5,22.3,29.42,North,0,0.0,0.0,46,0.00,CLR,,0.00,WeatherDisplay:10.37,2013-04-26 04:29:00,
2013-04-25 22:34:00,41.2,22.5,29.42,NE,45,0.0,0.0,47,0.00,CLR,,0.00,WeatherDisplay:10.37,2013-04-26 04:34:00,
2013-04-25 22:39:00,41.0,22.3,29.44,NE,45,0.0,0.0,47,0.00,CLR,,0.00,WeatherDisplay:10.37,2013-04-26 04:39:00,
2013-04-25 22:44:00,40.6,22.0,29.44,North,0,0.0,0.0,47,0.00,CLR,,0.00,WeatherDisplay:10.37,2013-04-26 04:44:00,
2013-04-25 22:49:00,40.8,22.1,29.44,NE,45,0.0,0.0,47,0.00,CLR,,0.00,WeatherDisplay:10.37,2013-04-26 04:49:00,
2013-04-25 22:54:00,40.5,22.3,29.44,NNE,22,0.0,0.0,48,0.00,CLR,,0.00,WeatherDisplay:10.37,2013-04-26 04:54:00,
2013-04-25 22:59:00,40.1,22.0,29.44,NNE,22,0.0,0.0,48,0.00,CLR,,0.00,WeatherDisplay:10.37,2013-04-26 04:59:00,
2013-04-25 23:04:00,39.9,21.8,29.44,NE,45,0.0,0.0,48,0.00,CLR,,0.00,WeatherDisplay:10.37,2013-04-26 05:04:00,
2013-04-25 23:09:00,39.7,21.6,29.44,North,0,0.0,0.0,48,0.00,CLR,,0.00,WeatherDisplay:10.37,2013-04-26 05:09:00,
2013-04-25 23:14:00,39.4,21.8,29.44,NE,45,0.0,0.0,49,0.00,CLR,,0.00,WeatherDisplay:10.37,2013-04-26 05:14:00,
2013-04-25 23:19:00,39.4,21.8,29.44,NE,45,0.0,0.0,49,0.00,CLR,,0.00,WeatherDisplay:10.37,2013-04-26 05:19:00,
2013-04-25 23:24:00,39.0,21.5,29.44,North,0,0.0,0.0,49,0.00,CLR,,0.00,WeatherDisplay:10.37,2013-04-26 05:24:00,
2013-04-25 23:29:00,39.0,21.9,29.44,NE,45,0.0,0.0,50,0.00,CLR,,0.00,WeatherDisplay:10.37,2013-04-26 05:29:00,
2013-04-25 23:34:00,38.5,21.4,29.44,NNE,22,0.0,0.0,50,0.00,CLR,,0.00,WeatherDisplay:10.37,2013-04-26 05:34:00,
2013-04-25 23:39:00,38.5,21.4,29.45,NNE,22,0.0,0.0,50,0.00,CLR,,0.00,WeatherDisplay:10.37,2013-04-26 05:39:00,
2013-04-25 23:44:00,38.3,21.3,29.45,NW,315,0.0,0.0,50,0.00,CLR,,0.00,WeatherDisplay:10.37,2013-04-26 05:44:00,
2013-04-25 23:49:00,38.1,21.6,29.45,North,0,0.0,0.0,51,0.00,CLR,,0.00,WeatherDisplay:10.37,2013-04-26 05:49:00,
2013-04-25 23:54:00,37.8,21.2,29.45,NE,45,0.0,0.0,51,0.00,CLR,,0.00,WeatherDisplay:10.37,2013-04-26 05:54:00,
2013-04-25 23:59:00,37.9,21.4,29.45,North,0,0.0,0.0,51,0.00,CLR,,0.00,WeatherDisplay:10.37,2013-04-26 05:59:00,